Weather in Podgornoye

Russia / Tambov Oblast     53°15′42″N   40°44′21″E
temp.,
°C
wind,
m/s
gust,
m/s
humid.,
%
clouds,
%
prec.,
mm/h
press.,
hPa
HPBL,
m
15 may, sat
sat1500:00+18sse615847 0.0 1011289
03:00+16sse3591100 0.0 101183
06:00+17se479170 0.0 1010158
09:00+20sse3686100 2.0 1011220
12:00+17wsw41087100 2.4 1012319
15:00+22s78685 2.4 1013969
18:00+21s58745 1.2 1012362
21:00+16wsw33855 1.6 101333
16 may, sun
sun1600:00+14sw22865 0.0 101415
03:00+13ssw22875 0.0 101517
06:00+15s23860 0.0 101579
09:00+20s23685 0.0 1015449
12:00+23ssw34530 0.0 10151538
15:00+24ssw24505 0.0 10151672
18:00+23wsw1161100 0.0 1014138
21:00+18e337127 0.2 101424
17 may, mon
mon1700:00+16ene3688100 0.9 101598
03:00+15e469374 0.9 101489
06:00+16e498314 0.0 1014176
09:00+21se576362 0.0 1014402
12:00+25se5750100 0.0 1014695
15:00+26se5952100 0.0 1013922
18:00+24se612625 0.0 1012485
21:00+19ese515760 0.0 1012258
18 may, tue
tue1800:00+18ese61759100 0.0 1011346
03:00+17se616579 0.0 1010324
06:00+15se513706 0.0 1010255
09:00+21sse6135574 0.0 1010534
12:00+25sse69475 0.0 1010853
15:00+26sse51050100 0.0 10091663
18:00+23sse496799 0.0 1008340
21:00+18sse477689 0.0 1009125
19 may, wed
wed1900:00+16wsw1192100 0.0 100913
03:00+16s4992100 0.2 1009257
06:00+16sse51087100 0.3 1008362
09:00+19s71175100 1.0 1008836
12:00+18ssw71182100 2.4 1008864
15:00+19ssw8106914 4.7 10091384
18:00+18sw69731 0.3 10091059
21:00+14sw3888100 0.3 1011164